When you browse on this site, cookies collect data to enhance your experience and personalize the content and advertising you see.
Visit our Privacy Policy to learn more. By continuing to use the site, you agree to this use of cookies and data.

Meteo pe oră la Dzierlin

Astăzi, 28 Septembrie, Luni

Timp Temperatura Precipitaţii Vânt Presiune Umiditate
00:00 +9°C° 0 mm 3 m/s 747 mmHg 80%
01:00 +8°C° 0 mm 3 m/s 747 mmHg 81%
02:00 +8°C° 0 mm 3 m/s 747 mmHg 81%
03:00 +8°C° 0 mm 3 m/s 747 mmHg 81%
04:00 +8°C° 0 mm 3 m/s 747 mmHg 81%
05:00 +8°C° 0 mm 3 m/s 747 mmHg 79%
06:00 +9°C° 0 mm 3 m/s 748 mmHg 77%
07:00 +8°C° 0 mm 4 m/s 748 mmHg 73%
08:00 +11°C° 0 mm 4 m/s 748 mmHg 69%
09:00 +12°C° 0 mm 4 m/s 748 mmHg 64%
10:00 +13°C° 0 mm 4 m/s 748 mmHg 59%
11:00 +13°C° 0 mm 3 m/s 748 mmHg 61%
12:00 +13°C° 0 mm 3 m/s 748 mmHg 63%
13:00 +14°C° 0 mm 2 m/s 748 mmHg 65%
14:00 +13°C° 0.1 mm 3 m/s 748 mmHg 66%
15:00 +13°C° 0.1 mm 3 m/s 748 mmHg 68%
16:00 +14°C° 0.1 mm 3 m/s 747 mmHg 70%
17:00 +13°C° 0.1 mm 3 m/s 747 mmHg 71%
18:00 +14°C° 0.1 mm 2 m/s 747 mmHg 73%
19:00 +14°C° 0.1 mm 2 m/s 747 mmHg 75%
20:00 +14°C° 0 mm 2 m/s 747 mmHg 76%
21:00 +13°C° 0 mm 3 m/s 747 mmHg 78%
22:00 +13°C° 0 mm 3 m/s 747 mmHg 79%
23:00 +13°C° 0.3 mm 3 m/s 747 mmHg 83%

Mâine, 29 Septembrie, Marţi

Timp Temperatura Precipitaţii Vânt Presiune Umiditate
00:00 +14°C° 0.3 mm 2 m/s 747 mmHg 87%
01:00 +14°C° 0.3 mm 2 m/s 747 mmHg 90%
02:00 +13°C° 0.1 mm 2 m/s 747 mmHg 90%
03:00 +13°C° 0.1 mm 2 m/s 747 mmHg 90%
04:00 +12°C° 0.1 mm 3 m/s 746 mmHg 90%
05:00 +12°C° 0 mm 3 m/s 747 mmHg 89%
06:00 +12°C° 0 mm 3 m/s 747 mmHg 88%
07:00 +12°C° 0 mm 3 m/s 747 mmHg 87%
08:00 +12°C° 0 mm 3 m/s 747 mmHg 84%
09:00 +14°C° 0 mm 2 m/s 747 mmHg 82%
10:00 +14°C° 0 mm 2 m/s 747 mmHg 80%
11:00 +15°C° 0.1 mm 2 m/s 747 mmHg 79%
12:00 +15°C° 0.1 mm 2 m/s 747 mmHg 78%
13:00 +15°C° 0.1 mm 1 m/s 747 mmHg 77%
14:00 +15°C° 0.2 mm 1 m/s 747 mmHg 78%
15:00 +15°C° 0.2 mm 1 m/s 747 mmHg 80%
16:00 +15°C° 0.2 mm 1 m/s 747 mmHg 81%
17:00 +15°C° 0.4 mm 2 m/s 748 mmHg 84%
18:00 +14°C° 0.4 mm 2 m/s 748 mmHg 87%
19:00 +13°C° 0.4 mm 3 m/s 748 mmHg 91%
20:00 +14°C° 0.2 mm 2 m/s 748 mmHg 91%
21:00 +14°C° 0.2 mm 2 m/s 748 mmHg 92%
22:00 +14°C° 0.2 mm 2 m/s 748 mmHg 92%
23:00 +14°C° 0.1 mm 2 m/s 748 mmHg 92%

Poimâine, 30 Septembrie, Miercuri

Timp Temperatura Precipitaţii Vânt Presiune Umiditate
00:00 +13°C° 0.1 mm 3 m/s 748 mmHg 93%
01:00 +13°C° 0.1 mm 3 m/s 748 mmHg 93%
02:00 +13°C° 0 mm 3 m/s 748 mmHg 91%
03:00 +13°C° 0 mm 3 m/s 748 mmHg 90%
04:00 +12°C° 0 mm 3 m/s 748 mmHg 88%
05:00 +12°C° 0 mm 3 m/s 748 mmHg 87%
06:00 +12°C° 0 mm 3 m/s 748 mmHg 86%
07:00 +12°C° 0 mm 3 m/s 748 mmHg 85%
08:00 +13°C° 0 mm 3 m/s 748 mmHg 81%
09:00 +14°C° 0 mm 3 m/s 748 mmHg 76%
10:00 +15°C° 0 mm 4 m/s 747 mmHg 72%
11:00 +15°C° 0 mm 4 m/s 747 mmHg 71%
12:00 +15°C° 0 mm 4 m/s 747 mmHg 70%
13:00 +17°C° 0 mm 4 m/s 746 mmHg 69%
14:00 +17°C° 0.2 mm 4 m/s 746 mmHg 73%
15:00 +15°C° 0.2 mm 4 m/s 746 mmHg 76%
16:00 +15°C° 0.2 mm 4 m/s 746 mmHg 79%
17:00 +15°C° 0.1 mm 4 m/s 746 mmHg 80%
18:00 +16°C° 0.1 mm 3 m/s 746 mmHg 80%
19:00 +16°C° 0.1 mm 3 m/s 746 mmHg 81%
20:00 +14°C° 0 mm 3 m/s 746 mmHg 82%
21:00 +14°C° 0 mm 3 m/s 746 mmHg 83%
22:00 +14°C° 0 mm 3 m/s 746 mmHg 84%
23:00 +13°C° 0 mm 3 m/s 745 mmHg 86%

1 Octombrie, Joi

Timp Temperatura Precipitaţii Vânt Presiune Umiditate
00:00 +13°C° 0 mm 3 m/s 745 mmHg 88%
01:00 +13°C° 0 mm 3 m/s 745 mmHg 90%
02:00 +12°C° 0 mm 3 m/s 745 mmHg 91%
03:00 +13°C° 0 mm 2 m/s 744 mmHg 92%
04:00 +12°C° 0 mm 2 m/s 744 mmHg 93%
05:00 +12°C° 0 mm 2 m/s 744 mmHg 92%
06:00 +11°C° 0 mm 3 m/s 744 mmHg 90%
07:00 +11°C° 0 mm 3 m/s 744 mmHg 89%
08:00 +12°C° 0 mm 3 m/s 744 mmHg 82%
09:00 +14°C° 0 mm 3 m/s 743 mmHg 74%
10:00 +16°C° 0 mm 3 m/s 743 mmHg 67%
11:00 +17°C° 0 mm 3 m/s 743 mmHg 63%
12:00 +18°C° 0 mm 3 m/s 743 mmHg 59%
13:00 +19°C° 0 mm 3 m/s 743 mmHg 55%
14:00 +19°C° 0 mm 3 m/s 743 mmHg 57%
15:00 +18°C° 0 mm 4 m/s 742 mmHg 60%
16:00 +18°C° 0 mm 4 m/s 742 mmHg 62%
17:00 +17°C° 0 mm 3 m/s 743 mmHg 65%
18:00 +14°C° 0 mm 3 m/s 743 mmHg 68%
19:00 +13°C° 0 mm 3 m/s 743 mmHg 71%
20:00 +14°C° 0 mm 2 m/s 743 mmHg 73%
21:00 +13°C° 0 mm 2 m/s 743 mmHg 76%
22:00 +12°C° 0 mm 1 m/s 743 mmHg 79%
23:00 +12°C° 0 mm 1 m/s 743 mmHg 82%

2 Octombrie, Vineri

Timp Temperatura Precipitaţii Vânt Presiune Umiditate
00:00 +12°C° 0 mm 1 m/s 743 mmHg 84%
01:00 +12°C° 0 mm 1 m/s 743 mmHg 87%
02:00 +12°C° 0 mm 1 m/s 743 mmHg 89%
03:00 +11°C° 0 mm 1 m/s 743 mmHg 91%
04:00 +10°C° 0 mm 2 m/s 743 mmHg 94%
05:00 +10°C° 0 mm 2 m/s 744 mmHg 94%
06:00 +12°C° 0 mm 2 m/s 744 mmHg 94%
07:00 +12°C° 0 mm 2 m/s 744 mmHg 94%
08:00 +12°C° 0 mm 3 m/s 744 mmHg 89%
09:00 +13°C° 0 mm 3 m/s 744 mmHg 84%
10:00 +15°C° 0 mm 4 m/s 744 mmHg 79%
11:00 +15°C° 0 mm 4 m/s 744 mmHg 76%
12:00 +17°C° 0 mm 4 m/s 744 mmHg 74%
13:00 +18°C° 0 mm 4 m/s 744 mmHg 71%
14:00 +17°C° 0 mm 4 m/s 744 mmHg 71%
15:00 +17°C° 0 mm 4 m/s 744 mmHg 72%
16:00 +17°C° 0 mm 4 m/s 744 mmHg 72%
17:00 +15°C° 0 mm 4 m/s 744 mmHg 75%
18:00 +14°C° 0 mm 4 m/s 745 mmHg 77%
19:00 +14°C° 0 mm 4 m/s 745 mmHg 80%
20:00 +13°C° 0 mm 4 m/s 745 mmHg 80%
21:00 +13°C° 0 mm 4 m/s 745 mmHg 81%
22:00 +13°C° 0 mm 4 m/s 745 mmHg 82%
23:00 +12°C° 0 mm 4 m/s 745 mmHg 84%

3 Octombrie, Sâmbătă

Timp Temperatura Precipitaţii Vânt Presiune Umiditate
00:00 +12°C° 0 mm 4 m/s 745 mmHg 86%
01:00 +12°C° 0 mm 4 m/s 744 mmHg 88%
02:00 +12°C° 0 mm 4 m/s 744 mmHg 89%
03:00 +10°C° 0 mm 5 m/s 744 mmHg 90%
04:00 +10°C° 0 mm 5 m/s 744 mmHg 92%
05:00 +12°C° 0 mm 5 m/s 744 mmHg 89%
06:00 +11°C° 0 mm 6 m/s 743 mmHg 86%
07:00 +12°C° 0 mm 7 m/s 743 mmHg 83%
08:00 +12°C° 0 mm 7 m/s 743 mmHg 83%
09:00 +14°C° 0 mm 7 m/s 743 mmHg 82%
10:00 +14°C° 0 mm 7 m/s 743 mmHg 81%
11:00 +15°C° 0 mm 7 m/s 743 mmHg 77%
12:00 +16°C° 0 mm 7 m/s 743 mmHg 74%
13:00 +17°C° 0 mm 7 m/s 743 mmHg 70%
14:00 +18°C° 0 mm 7 m/s 743 mmHg 71%
15:00 +19°C° 0 mm 6 m/s 743 mmHg 71%
16:00 +19°C° 0 mm 6 m/s 743 mmHg 71%
17:00 +17°C° 0 mm 6 m/s 743 mmHg 73%
18:00 +17°C° 0 mm 7 m/s 743 mmHg 74%
19:00 +16°C° 0 mm 7 m/s 743 mmHg 76%
20:00 +16°C° 0 mm 7 m/s 743 mmHg 76%
21:00 +16°C° 0 mm 7 m/s 743 mmHg 76%
22:00 +16°C° 0 mm 7 m/s 743 mmHg 77%
23:00 +16°C° 0 mm 7 m/s 743 mmHg 78%
Arată mai mult